Location: Unspecified
(0.0000°N, 0.0000°E)
Time: 23:21:49
(UTC+00:00)

SRMSAT - Pass Details

Date: 24 July 2019
Orbit: 848 x 866 km, 20.0° (Epoch: 16 August)

Event Time Altitude Azimuth Distance (km) Brightness Sun altitude
Rises 20:37:23 0° 307° (NW) 3,424 ? -35.1°
Reaches altitude 10° 20:43:09 10° 351° (N) 2,485 ? -36.4°
Maximum altitude 20:43:43 10° 356° (N) 2,475 ? -36.6°
Drops below altitude 10° 20:44:18 10° 2° (N) 2,484 ? -36.7°
Enters shadow 20:44:42 10° 6° (N) 2,502 ? -36.8°
